Prescott, AZ

6:27 AM MST on August 22, 2017 (GMT -0700)
Love

Weather History for KPRC - September, 2013

Change the Weather History Date:

Wednesday, September 4, 2013

  Actual Average Record
Temperature  
Mean Temperature 77 °F 71 °F  
Max Temperature 90 °F 85 °F 96 °F (1955)
Min Temperature 63 °F 57 °F 40 °F (1961)
Degree Days  
Heating Degree Days 0    
Month to date heating degree days 0  
Since 1 July heating degree days 0  
Cooling Degree Days 12    
Month to date cooling degree days 38  
Year to date cooling degree days 1059  
Growing Degree Days 26 (Base 50)    
Moisture  
Dew Point 55 °F    
Average Humidity 55    
Maximum Humidity 84    
Minimum Humidity 24    
Precipitation  
Precipitation 0.00 in 0.05 in 1.15 in (1974)
Month to date precipitation 0.12 0.25  
Year to date precipitation 8.34 9.91  
Sea Level Pressure  
Sea Level Pressure 29.95 in    
Wind  
Wind Speed 6 mph (WSW)    
Max Wind Speed 21 mph    
Max Gust Speed 24 mph    
Visibility 10 miles    
Events      
T = Trace of Precipitation, MM = Missing Value Source: NWS Daily Summary

Daily Weather History Graph

Daily Weather History Graph

Search for Another Location

Airport or City:

Trip Planner

Search our weather history database for the weather conditions in past years. The results will help you decide how hot, cold, wet, or windy it might be!

Date:

Astronomy

Sep. 04, 2013 Rise Set
Actual Time 6:05 AM MST 6:51 PM MST
Civil Twilight 5:39 AM MST 7:17 PM MST
Nautical Twilight 5:09 AM MST 7:47 PM MST
Astronomical Twilight 4:38 AM MST 8:18 PM MST
Moon 5:20 AM MST (9/4) 6:14 PM MST (9/4)
Length of Visible Light 13h 37m
Length of Day
12h 46m
Waning Crescent, 1% of the Moon is Illuminated
Sep 4
Waning Crescent
Sep 5
New
Sep 12
First Quarter
Sep 19
Full
Sep 26
Last Quarter

Hourly Weather History & Observations

Time (MST) Temp. Heat Index Dew Point Humidity Pressure Visibility Wind Dir Wind Speed Gust Speed Precip Events Conditions
12:53 AM 66.9 °F - 55.9 °F 68% 29.94 in 10.0 mi WSW 3.5 mph - N/A   Clear
1:53 AM 66.0 °F - 57.0 °F 73% 29.93 in 10.0 mi South 4.6 mph - N/A   Clear
2:53 AM 66.0 °F - 57.0 °F 73% 29.93 in 10.0 mi Calm Calm - N/A   Clear
3:53 AM 66.9 °F - 55.9 °F 68% 29.94 in 10.0 mi Calm Calm - N/A   Clear
4:53 AM 64.9 °F - 57.0 °F 75% 29.96 in 10.0 mi Calm Calm - N/A   Clear
5:53 AM 63.0 °F - 57.0 °F 81% 29.96 in 10.0 mi Calm Calm - N/A   Partly Cloudy
6:53 AM 64.9 °F - 57.0 °F 75% 29.99 in 10.0 mi SW 3.5 mph - N/A   Scattered Clouds
7:53 AM 70.0 °F - 57.9 °F 65% 30.00 in 10.0 mi Calm Calm - N/A   Partly Cloudy
8:53 AM 73.0 °F - 57.0 °F 57% 30.01 in 10.0 mi Calm Calm - N/A   Scattered Clouds
9:53 AM 80.1 °F 80.4 °F 57.0 °F 45% 29.99 in 10.0 mi Calm Calm - N/A   Partly Cloudy
10:53 AM 84.0 °F - 52.0 °F 33% 29.98 in 10.0 mi North 3.5 mph - N/A   Scattered Clouds
11:53 AM 84.9 °F 83.6 °F 55.0 °F 36% 29.96 in 10.0 mi NW 4.6 mph - N/A   Scattered Clouds
12:53 PM 87.1 °F - 50.0 °F 28% 29.93 in 10.0 mi Variable 6.9 mph 16.1 mph N/A   Partly Cloudy
1:53 PM 89.1 °F - 48.9 °F 25% 29.91 in 10.0 mi ESE 9.2 mph 16.1 mph N/A   Scattered Clouds
2:53 PM 89.1 °F - 48.9 °F 25% 29.88 in 10.0 mi SSE 8.1 mph - N/A   Clear
3:53 PM 84.0 °F 82.6 °F 54.0 °F 35% 29.89 in 10.0 mi WSW 16.1 mph - N/A   Scattered Clouds
4:53 PM 82.0 °F 81.2 °F 53.1 °F 37% 29.89 in 10.0 mi WSW 13.8 mph - N/A   Clear
5:53 PM 79.0 °F - 55.9 °F 45% 29.94 in 10.0 mi NW 19.6 mph - N/A   Mostly Cloudy
6:53 PM 72.0 °F - 55.9 °F 57% 29.98 in 10.0 mi NW 9.2 mph - N/A   Clear
7:53 PM 70.0 °F - 55.0 °F 59% 29.99 in 10.0 mi West 6.9 mph - N/A   Clear
8:53 PM 69.1 °F - 53.1 °F 57% 30.00 in 10.0 mi West 3.5 mph - N/A   Clear
9:53 PM 66.9 °F - 53.1 °F 61% 29.98 in 10.0 mi SW 5.8 mph - N/A   Clear
10:53 PM 66.9 °F - 55.9 °F 68% 29.96 in 10.0 mi SSW 8.1 mph - N/A   Mostly Cloudy
11:53 PM 66.0 °F - 55.0 °F 68% 29.96 in 10.0 mi SW 4.6 mph - N/A   Clear